Home > Weather > Angels Camp > Past weeks

Flag for U.S.A. Weather for the Past 2 Weeks in Angels Camp, California, U.S.A.

Now
69 °F

Sunny.


Feels Like: 69 °F
Forecast: 41 / 72 °F
Wind: 15 mph from Northwest

Location: Modesto City-County-Sham Field

Current Time: Feb 13, 2016 at 6:29:31 PM

Latest Report: Feb 13, 2016 at 4:53 PM


Visibility: 10 mi

Pressure: 30.17 "Hg

Humidity: 44%

Dew point: 46 °F

Location of Angels CampLocation

Historic Weather in Angels Camp — Graph

°F

Angels Camp Temperature Yesterday

Maximum temperature yesterday: 70 °F (at 2:53 PM)
Minimum temperature yesterday: 43 °F (at 6:53 AM)
Average temperature yesterday: 58 °F

High & Low Weather Summary for the Past Weeks

 TemperatureHumidityPressure
High72 °F (Feb 8, 2:53 PM)97% (Jan 30, 1:53 AM)30.49 "Hg (Jan 30, 1:53 AM)
Low35 °F (Feb 3, 6:53 AM)28% (Feb 1, 3:53 PM)29.71 "Hg (Jan 31, 2:53 PM)
Average52 °F74%30.21 "Hg
* Reported Jan 29 4:53 PM — Feb 13 4:53 PM, Angels Camp, Weather by CustomWeather, © 2016

Note: Actual official high and low records may vary slightly from our data, if they occured in-between our weather recording intervals... More about our weather records

Advertising

Angels Camp Weather History for the Previous 24 Hours

 ConditionsComfort  
Time TempWeatherWind HumidityBarometerVisibility
4:53 PM
Sat, Feb 13
69 °FSunny.15 mph44%30.17 "Hg10 mi
3:53 PM71 °FSunny.16 mph36%30.16 "Hg10 mi
2:53 PM71 °FSunny.14 mph42%30.16 "Hg10 mi
1:53 PM70 °FSunny.17 mph47%30.18 "Hg10 mi
12:53 PM68 °FSunny.16 mph53%30.20 "Hg10 mi
11:53 AM66 °FSunny.16 mph61%30.24 "Hg10 mi
10:53 AM64 °FSunny.8 mph70%30.24 "Hg10 mi
9:53 AM61 °FSunny.10 mph75%30.25 "Hg10 mi
8:53 AM57 °FSunny.9 mph87%30.26 "Hg8 mi
7:53 AM53 °FSunny.3 mph93%30.25 "Hg7 mi
6:53 AM47 °FFog.No wind93%30.23 "Hg4 mi
5:53 AM48 °FFog.No wind93%30.21 "Hg3 mi
4:53 AM50 °FFog.No wind86%30.20 "Hg3 mi
3:53 AM49 °FFog.No wind93%30.20 "Hg1 mi
2:53 AM50 °FFog.No wind96%30.19 "Hg2 mi
1:53 AM53 °FFog.No wind89%30.18 "Hg4 mi
12:53 AM54 °FFog.No wind86%30.18 "Hg4 mi
11:53 PM
Fri, Feb 12
57 °FClear.No wind83%30.18 "Hg4 mi
10:53 PM58 °FClear.No wind81%30.17 "Hg7 mi
9:53 PM59 °FClear.3 mph78%30.17 "Hg7 mi
8:53 PM61 °FClear.6 mph75%30.16 "Hg7 mi
7:53 PM61 °FClear.6 mph75%30.16 "Hg7 mi
6:53 PM64 °FClear.5 mph70%30.15 "Hg6 mi
Weather by CustomWeather, © 2016

See weather overviewHow to use our weather pages